Find Tianqi Xingzuo 1-30

NORAD ID: 62365 Int'l Des: 2024-245 Owner: GUOG Country: CN Constellation: tianqi operational
LEOCIRCULAR

实时位置

正在加载3D地球...

关于 Tianqi Xingzuo 1-30

正在加载描述...

即将过境

Passes for default location (London). Set your location on the main map for personalized predictions.

高度历史

Loading altitude history...

两行轨道根数

1 62365U 24245A 26107.25854194 .00000039 00000-0 11526-3 0 9993
2 62365 44.9830 233.1348 0007304 94.0408 266.1260 13.99188599 67823
Epoch: Apr 17, 2026 • Age: 10 hours

当前状态

高度 902.2 km
速度 7.40 km/s
星下点 -17.38°S, 12.47°W
发射日期 Dec 19, 2024
运行时间 1.3 years
类型 other

技术详情

分类 Payload
质量 40.00 kg
干质量 40.00 kg
总质量 40.00 kg
长度 0.50 m
直径 0.30 m
跨度 0.50 m
形状 Box
制造商 ASES
平台类型 StarLightB
阶段状态 In Orbit
所有者/国家 GUOG/CN

Most Searched